Regional Weather Roundup
Issued by NWS

Home | Current Version | Previous Version | Graphics & Text | Print | Product List | Glossary On
Versions: 1 2 3 4 5 6 7 8 9 10 11 12 13 14 15 16 17 18 19 20 21 22 23 24 25 26 27 28 29 30 31 32 33 34 35 36 37 38 39 40 41 42 43 44 45 46 47 48 49 50
477
ASUS43 KLOT 250404
RWRIL

ILLINOIS REGIONAL WEATHER ROUNDUP
NATIONAL WEATHER SERVICE CHICAGO/ROMEOVILLE IL
1100 PM CDT WED AUG 24 2016

NOTE: "FAIR" INDICATES FEW OR NO CLOUDS BELOW 12,000 FEET WITH NO
SIGNIFICANT WEATHER AND/OR OBSTRUCTIONS TO VISIBILITY.

* THESE STATIONS ARE NOT UNDER NWS QUALITY CONTROL. THEY ALSO MAY NOT
  REPORT WEATHER SUCH AS PRECIPITATION OR FOG.

ILZ001-002-007-009-015-016-024-250500-
NORTHWEST ILLINOIS

CITY           SKY/WX    TMP DP  RH WIND       PRES   REMARKS
MOLINE         CLOUDY    71  69  93 CALM      29.97F
STERLING*      RAIN      75  73  93 W3        29.98S
SAVANNA*       LGT RAIN  74  73  95 CALM      29.96F
$$

ILZ003-004-008-010-011-017-018-250500-
NORTH CENTRAL ILLINOIS

CITY           SKY/WX    TMP DP  RH WIND       PRES   REMARKS
ROCKFORD       LGT RAIN  75  70  84 S6        29.98R
FREEPORT*      LGT RAIN  73  70  90 W6        29.98F
ROCHELLE*      CLOUDY    72  71  98 CALM      29.99S
$$

ILZ005-006-012>014-019>023-250500-
NORTHEAST ILLINOIS

CITY           SKY/WX    TMP DP  RH WIND       PRES   REMARKS
CHICAGO-OHARE  MOCLDY    77  71  82 SW6       29.97R
CHICAGO-MIDWAY MOCLDY    78  71  79 SW8       29.97R HX  80
AURORA         CLOUDY    76  71  85 S6        29.98S
LANSING*       CLEAR     73  69  87 SW5       29.99R
JOLIET*        CLOUDY    74  73  93 S3        29.98F
WAUKEGAN       MOCLDY    76  72  87 SW6       29.94S
DUPAGE AIRPORT MOCLDY    76  71  85 SW6       29.98R
KANKAKEE*      PTCLDY    71  69  95 S5        30.01S
WHEELING       PTCLDY    77  72  84 S5        29.97R
MORRIS*        CLOUDY    72  70  94 CALM      29.97F
ROMEOVILLE*    CLOUDY    74  69  86 SW5       29.98F
NORTHERLY ISL    N/A     78  70  76 SW3         N/A  HX  80
$$

LMZ740>746-250500-
SOUTHERN LAKE MICHIGAN

STATION/POSITION SKY/WX   TEMP    WIND        PRES    VSBY  WAVE
                          AIR SEA DIR/SP/G                  HT/PER
                          (F)     (DEG/KT/KT) (MB)    (MI)  (FT/S)
SOUTHERN BUOY              75 75  190/ 10/ 12 1013.3          1/ 4
WILMETTE HARBOR            73 70  210/  4/  6   N/A           1
HARRISON CRIB              80     210/  9/ 10   N/A
BURNHAM HARBOR             78     200/  4/  6   N/A
CALUMET HARBOR             77     190/  5/  8 1014.6S
BURNS HARBOR               77     220/ 10/ 13 1015.9R
MICHIGAN CITY              76     190/  9/ 10   N/A
MICHIGAN CITY 6N           75 73  210/  8/  8   N/A           1/ 3
ST. JOSEPH                 76 75  230/  8/ 10 1014.4S         1/ 3
$$

ILZ025>027-034>036-040-047-049-050-058-095>099-250500-
WEST-CENTRAL ILLINOIS

CITY           SKY/WX    TMP DP  RH WIND       PRES   REMARKS
QUINCY         CLOUDY    77  75  93 CALM      29.98F
GALESBURG*     MOCLDY    73  69  87 NW6       30.00S
MACOMB*        CLOUDY    76  75  96 NW3       30.01F
JACKSONVILLE*  CLEAR     78  73  85 CALM      29.98F HX  80
PITTSFIELD*    CLEAR     76  75  96 SE3       30.00F
$$

ILZ028>032-037-038-041>044-048-051>054-059>061-250500-
CENTRAL ILLINOIS

CITY           SKY/WX    TMP DP  RH WIND       PRES   REMARKS
PONTIAC        CLOUDY    74  73  98 SE3       30.00F
BLOOMINGTON    CLOUDY    74  72  93 S5        30.02S
DECATUR        MOCLDY    75  72  90 SE3       30.02R
PEORIA         MOCLDY    78  75  90 S7        29.98F HX  81
LACON*         CLOUDY    74  71  89 CALM      29.97F
LINCOLN*       CLEAR     76  75  96 CALM      29.99F
SPRINGFIELD    CLEAR     77  73  87 CALM      30.00S
TAYLORVILLE    PTCLDY    74  73  97 SE3       30.02R
$$

ILZ033-039-045-046-055>057-062-063-250500-
EAST-CENTRAL ILLINOIS

CITY           SKY/WX    TMP DP  RH WIND       PRES   REMARKS
CHAMPAIGN      CLEAR     73  71  93 S7        30.02S
RANTOUL*       CLEAR     74  73  97 CALM      30.02S FOG
MATTOON        CLOUDY    77  72  84 S12       30.02F
PARIS*         CLOUDY    77  75  94 CALM      30.03F
$$

ILZ079-100>102-250500-
SOUTHWEST ILLINOIS

CITY           SKY/WX    TMP DP  RH WIND       PRES   REMARKS
ALTON          PTCLDY    79  75  89 S6        30.01S HX  82
BELLEVILLE     CLEAR     80  77  90 S6        30.01S HX  87
CAHOKIA*       CLEAR     83  74  74 VRB6      30.01S HX  89
SPARTA*        CLEAR     80  76  85 S8        30.05S HX  86
$$

ILZ064>066-069>071-074>076-080>082-084>086-088>090-092>094-250500-
SOUTH-CENTRAL ILLINOIS

CITY           SKY/WX    TMP DP  RH WIND       PRES   REMARKS
CARBONDALE     CLEAR     78  74  87 SW6       30.04F HX  81
EFFINGHAM*     PTCLDY    79  78  96 S5        30.05R HX  84
MARION         CLEAR     81  77  89 S3        30.06S HX  88
MT. VERNON     CLEAR     77  70  78 SW3       30.05S
CENTRALIA*     CLEAR     81  76  86 S8        30.03S HX  88
SALEM*         CLEAR     82  75  80 SW9       30.03S HX  88
METROPOLIS*    CLEAR     80  75  84 S5        30.07F HX  85
$$

ILZ067-068-072-073-078-083-087-091-250500-
SOUTHEAST ILLINOIS

CITY           SKY/WX    TMP DP  RH WIND       PRES   REMARKS
LAWRENCEVILLE  MOCLDY    79  75  87 S8        30.04F HX  83
FLORA*         CLOUDY    80  76  89 S5        30.04S HX  85
FAIRFIELD*     CLOUDY    78  76  93 S5        30.03F HX  82
HARRISBURG*    CLEAR     79  76  89 SW3       30.06S HX  84
ROBINSON*      CLOUDY    79  75  89 SW8       30.04S HX  82
CARMI*         CLEAR     77  75  92 S6        30.05S
$$

ABBREVIATIONS USED IN REMARKS
   TC - TEMPERATURE IN CELSIUS
  WCI - WIND CHILL INDEX
   HX - HEAT INDEX
  VSB - VISIBILITY
$$





USA.gov is the U.S. government's official web portal to all federal, state and local government web resources and services.